Flag for Japan Weather past 2 weeks in Utsunomiya, Japan

Now
47 °F

Cool.


Feels Like: 43 °F
Forecast: 31 / 44 °F
Wind: 9 mph from North

Location: Mito

Current Time: Feb 28, 2015 at 12:06:01 PM

Latest Report: Feb 28, 2015 at 11:00 AM


Visibility: N/A

Pressure: 30.29 "Hg

Humidity: 28%

Dew point: 16 °F

Location of UtsunomiyaLocation

Historic Weather in Utsunomiya — Graph

°F

Utsunomiya temperature yesterday

Maximum temperature yesterday: 55 °F (at 1:00 PM)
Minimum temperature yesterday: 34 °F (at 6:00 AM)
Average temperature yesterday: 43 °F

Past Weeks' High & Low Weather Summary

 TemperatureHumidityPressure
High55 °F (Feb 27, 1:00 PM)97% (Feb 23, 4:00 AM)30.42 "Hg (Feb 23, 4:00 AM)
Low28 °F (Feb 21, 6:00 AM)15% (Feb 13, 1:00 PM)29.54 "Hg (Feb 13, 2:00 PM)
Average41 °F69%29.98 "Hg
* Reported Feb 13 10:00 AM — Feb 28 10:00 AM, Utsunomiya, Weather by CustomWeather, © 2015

Note: Actual official high and low records may vary slightly from our data, if they occured in-between our weather recording intervals... More about our weather records

Advertising

Utsunomiya weather history for previous 24 hours

 ConditionsComfort  
Time TempWeatherWind HumidityBarometerVisibility
10:00 AM
Sat, Feb 28
45 °FCool.10 mph33%30.28 "HgN/A
9:00 AM43 °FPartly sunny.8 mph36%30.27 "Hg19 mi
8:00 AM40 °FChilly.3 mph40%30.26 "HgN/A
7:00 AM37 °FChilly.2 mph45%30.22 "HgN/A
5:00 AM37 °FChilly.5 mph44%30.14 "HgN/A
4:00 AM39 °FChilly.6 mph40%30.10 "HgN/A
3:00 AM37 °FOvercast.3 mph54%30.05 "Hg19 mi
2:00 AM38 °FChilly.7 mph48%30.03 "HgN/A
1:00 AM38 °FChilly.9 mph54%30.01 "HgN/A
12:00 AM38 °FChilly.10 mph53%30.00 "HgN/A
11:00 PM
Fri, Feb 27
39 °FChilly.7 mph58%30.00 "HgN/A
10:00 PM40 °FChilly.6 mph52%29.99 "HgN/A
9:00 PM40 °FPassing clouds.6 mph52%29.96 "Hg19 mi
8:00 PM40 °FQuite cool.7 mph54%29.92 "HgN/A
7:00 PM43 °FQuite cool.12 mph40%29.89 "HgN/A
6:00 PM44 °FQuite cool.9 mph37%29.86 "HgN/A
5:00 PM47 °FCool.8 mph30%29.81 "HgN/A
4:00 PM48 °FCool.9 mph34%29.79 "HgN/A
3:00 PM53 °FPassing clouds.10 mph19%29.77 "Hg19 mi
2:00 PM54 °FCool.9 mph18%29.74 "HgN/A
1:00 PM55 °FRefreshingly cool.12 mph19%29.72 "HgN/A
Weather by CustomWeather, © 2015

See weather overviewHow to use our weather pages